Regional Weather Roundup
Issued by NWS

Home | Current Version | Previous Version | Text Only | Print | Product List | Glossary Off
Versions: 1 2 3 4 5 6 7 8 9 10 11 12 13 14 15 16 17 18 19 20 21 22 23 24 25 26 27 28 29 30 31 32 33 34 35 36 37 38 39 40 41 42 43 44 45 46 47 48 49 50

000
ASUS43 KLOT 260302
RWRIL

ILLINOIS REGIONAL WEATHER ROUNDUP
NATIONAL WEATHER SERVICE CHICAGO/ROMEOVILLE IL
1000 PM CDT MON MAY 25 2015

NOTE: "FAIR" INDICATES FEW OR NO CLOUDS BELOW 12,000 FEET WITH NO
SIGNIFICANT WEATHER AND/OR OBSTRUCTIONS TO VISIBILITY.

* THESE STATIONS ARE NOT UNDER NWS QUALITY CONTROL. THEY ALSO MAY NOT
  REPORT WEATHER SUCH AS PRECIPITATION OR FOG.

ILZ001-002-007-009-015-016-024-260400-
NORTHWEST ILLINOIS

CITY           SKY/WX    TMP DP  RH WIND       PRES   REMARKS
MOLINE         PTCLDY    69  61  75 S7        29.90R
STERLING*      PTCLDY    72  61  68 CALM      29.93R
$$

ILZ003-004-008-010-011-017-018-260400-
NORTH CENTRAL ILLINOIS

CITY           SKY/WX    TMP DP  RH WIND       PRES   REMARKS
ROCKFORD       PTCLDY    73  58  59 SW8       29.93R
$$

ILZ005-006-012>014-019>023-260400-
NORTHEAST ILLINOIS

CITY           SKY/WX    TMP DP  RH WIND       PRES   REMARKS
CHICAGO-OHARE  PTCLDY    73  59  61 S8        29.93R
CHICAGO-MIDWAY CLEAR     77  60  55 S5        29.94R
AURORA         CLEAR     71  60  68 S9        29.94R
WAUKEGAN       CLEAR     66  59  78 S5        29.93R
DUPAGE AIRPORT CLEAR     69  60  73 S7        29.94R
WHEELING       CLEAR     68  60  75 CALM      29.95R
NORTHERLY ISL    N/A     75  57  53 S7          N/A
$$

LMZ740>746-260400-
SOUTHERN LAKE MICHIGAN

STATION/POSITION SKY/WX   TEMP    WIND        PRES    VSBY  WAVE
                          AIR SEA DIR/SP/G                  HT/PER
                          (F)     (DEG/KT/KT) (MB)    (MI)  (FT/S)
SOUTHERN BUOY              49 38  200/ 12/ 12 1013.9R         1/ 3
HARRISON CRIB              76     190/ 12/ 12   N/A
BURNHAM HARBOR             76     200/  7/  8   N/A
CALUMET HARBOR             75     170/  3/  5   N/A
BURNS HARBOR               76     190/  8/ 10 1013.9S
MICHIGAN CITY              77     150/ 10/ 12   N/A
MICHIGAN CITY 6N           64 52  170/  6/  8   N/A           1/ 3
ST. JOSEPH                 62 55  200/  6/  6   N/A           1/ 4
$$

ILZ025>027-034>036-040-047-049-050-058-095>099-260400-
WEST-CENTRAL ILLINOIS

CITY           SKY/WX    TMP DP  RH WIND       PRES   REMARKS
QUINCY         MOCLDY    72  65  78 SE7       29.91R
$$

ILZ028>032-037-038-041>044-048-051>054-059>061-260400-
CENTRAL ILLINOIS

CITY           SKY/WX    TMP DP  RH WIND       PRES   REMARKS
DECATUR        CLEAR     73  65  75 S10       30.02R
PEORIA         CLEAR     76  65  68 S14G24    29.95R
SPRINGFIELD    PTCLDY    75  66  73 S15       29.98R
TAYLORVILLE    NOT AVBL
$$

ILZ033-039-045-046-055>057-062-063-260400-
EAST-CENTRAL ILLINOIS

CITY           SKY/WX    TMP DP  RH WIND       PRES   REMARKS
CHAMPAIGN      CLEAR     73  65  75 S12       30.03R
MATTOON        PTCLDY    71  65  81 S12       30.03R
$$

ILZ079-100>102-260400-
SOUTHWEST ILLINOIS

CITY           SKY/WX    TMP DP  RH WIND       PRES   REMARKS
BELLEVILLE     PTCLDY    72  70  93 SE9       29.96F
CAHOKIA*       MOCLDY    74  67  78 SE10      29.95F
$$

ILZ064>066-069>071-074>076-080>082-084>086-088>090-092>094-260400-
SOUTH-CENTRAL ILLINOIS

CITY           SKY/WX    TMP DP  RH WIND       PRES   REMARKS
CARBONDALE     CLEAR     70  66  87 SE8       30.00F
MT. VERNON     CLEAR     70  63  78 SE7       30.03F
$$

ILZ067-068-072-073-078-083-087-091-260400-
SOUTHEAST ILLINOIS

CITY           SKY/WX    TMP DP  RH WIND       PRES   REMARKS
LAWRENCEVILLE  MOCLDY    69  65  86 S6        30.08R
CARMI*         MOCLDY    68  63  83 SE7       30.05S
$$

ABBREVIATIONS USED IN REMARKS
   TC - TEMPERATURE IN CELSIUS
  WCI - WIND CHILL INDEX
   HX - HEAT INDEX
  VSB - VISIBILITY
$$



USA.gov is the U.S. government's official web portal to all federal, state and local government web resources and services.